Jackson, KY

12:39 AM EDT on March 28, 2017 (GMT -0400)
Carroll

Weather History for KJKL - September, 2012

Change the Weather History Date:

Thursday, September 27, 2012

  Actual Average Record
Temperature  
Mean Temperature 69 °F 64 °F  
Max Temperature 75 °F 74 °F 87 °F (1986)
Min Temperature 62 °F 54 °F 40 °F (2000)
Degree Days  
Heating Degree Days 0 4  
Month to date heating degree days 53 37  
Since 1 July heating degree days 53 39  
Cooling Degree Days 4 3  
Month to date cooling degree days 116 137  
Year to date cooling degree days 1294 1115  
Growing Degree Days 18 (Base 50)    
Moisture  
Dew Point 60 °F    
Average Humidity 78    
Maximum Humidity 87    
Minimum Humidity 68    
Precipitation  
Precipitation T in 0.11 in 0.86 in (1984)
Month to date precipitation 6.11 3.11  
Year to date precipitation 39.86 36.66  
Snow  
Snow 0.00 in 0.00 in - ()
Month to date snowfall 0.0 0.0  
Since 1 July snowfall 0.0 0.0  
Since 1 September snowfall 0.0 0.0  
Snow Depth 0.00 in    
Sea Level Pressure  
Sea Level Pressure 30.13 in    
Wind  
Wind Speed 1 mph (WSW)    
Max Wind Speed 7 mph    
Max Gust Speed 16 mph    
Visibility 10 miles    
Events Rain    
T = Trace of Precipitation, MM = Missing Value Source: NWS Daily Summary

Daily Weather History Graph

Daily Weather History Graph

Search for Another Location

Airport or City:

Trip Planner

Search our weather history database for the weather conditions in past years. The results will help you decide how hot, cold, wet, or windy it might be!

Date:

Astronomy

Sep. 27, 2012 Rise Set
Actual Time 7:25 AM EDT 7:21 PM EDT
Civil Twilight 6:59 AM EDT 7:47 PM EDT
Nautical Twilight 6:29 AM EDT 8:18 PM EDT
Astronomical Twilight 5:58 AM EDT 8:48 PM EDT
Moon 5:51 PM EDT (9/27) 4:55 AM EDT (9/27)
Length of Visible Light 12h 48m
Length of Day
11h 56m
Waxing Gibbous, 94% of the Moon is Illuminated
Sep 27
Waxing Gibbous
Sep 29
Full
Oct 8
Last Quarter
Oct 15
New
Oct 21
First Quarter

Hourly Weather History & Observations

Time (EDT) Temp. Dew Point Humidity Pressure Visibility Wind Dir Wind Speed Gust Speed Precip Events Conditions
12:53 AM 66.9 °F 57.9 °F 73% 30.14 in 10.0 mi Calm Calm - N/A   Clear
1:53 AM 66.9 °F 57.0 °F 70% 30.14 in 10.0 mi Calm Calm - N/A   Clear
2:53 AM 64.9 °F 57.0 °F 75% 30.12 in 10.0 mi Calm Calm - N/A   Clear
3:53 AM 64.9 °F 57.0 °F 75% 30.12 in 10.0 mi Variable 3.5 mph - N/A   Clear
4:53 AM 64.0 °F 57.0 °F 78% 30.13 in 10.0 mi Calm Calm - N/A   Clear
5:53 AM 63.0 °F 57.0 °F 81% 30.14 in 10.0 mi Calm Calm - N/A   Clear
6:53 AM 63.0 °F 57.0 °F 81% 30.15 in 10.0 mi Calm Calm - N/A   Clear
7:53 AM 63.0 °F 57.0 °F 81% 30.16 in 10.0 mi Calm Calm - N/A   Clear
8:53 AM 63.0 °F 57.9 °F 84% 30.18 in 10.0 mi Calm Calm - 0.00 in Rain Light Rain
9:53 AM 64.9 °F 59.0 °F 81% 30.17 in 10.0 mi Calm Calm - 0.00 in   Mostly Cloudy
10:53 AM 68.0 °F 60.1 °F 76% 30.18 in 10.0 mi South 4.6 mph - N/A   Mostly Cloudy
11:53 AM 72.0 °F 61.0 °F 68% 30.17 in 10.0 mi Variable 5.8 mph - N/A   Scattered Clouds
12:53 PM 71.1 °F 62.1 °F 73% 30.16 in 10.0 mi Calm Calm - N/A   Clear
1:53 PM 73.9 °F 63.0 °F 68% 30.14 in 10.0 mi Calm Calm - 0.00 in   Scattered Clouds
2:53 PM 73.0 °F 62.1 °F 68% 30.13 in 10.0 mi West 4.6 mph - N/A   Overcast
3:53 PM 73.9 °F 63.0 °F 68% 30.12 in 10.0 mi Variable 4.6 mph - N/A   Overcast
4:53 PM 72.0 °F 63.0 °F 73% 30.11 in 10.0 mi Calm Calm - N/A   Overcast
5:53 PM 73.9 °F 63.0 °F 68% 30.11 in 10.0 mi Variable 3.5 mph - N/A   Partly Cloudy
6:53 PM 71.1 °F 63.0 °F 75% 30.10 in 10.0 mi WNW 3.5 mph - N/A   Clear
7:53 PM 70.0 °F 61.0 °F 73% 30.10 in 10.0 mi West 4.6 mph - N/A   Partly Cloudy
8:53 PM 69.1 °F 61.0 °F 75% 30.11 in 10.0 mi Calm Calm - N/A   Clear
9:53 PM 68.0 °F 62.1 °F 81% 30.12 in 10.0 mi Calm Calm - N/A   Clear
10:53 PM 68.0 °F 63.0 °F 84% 30.12 in 10.0 mi Calm Calm - N/A   Mostly Cloudy
11:53 PM 66.9 °F 63.0 °F 87% 30.11 in 10.0 mi Calm Calm - 0.00 in   Mostly Cloudy